Weather History for Ainsworth, NE

Change the Weather History Date:

Thursday, March 22, 2012

  Actual Average Record
Temperature  
Mean Temperature 52 °F -  
Max Temperature 56 °F 47 °F 66 °F (2007)
Min Temperature 49 °F 26 °F 6 °F (2002)
Degree Days  
Heating Degree Days 12    
Growing Degree Days 2 (Base 50)    
Moisture  
Dew Point 51 °F    
Average Humidity 93    
Maximum Humidity 100    
Minimum Humidity 68    
Precipitation  
Precipitation 0.17 in - - ()
Sea Level Pressure  
Sea Level Pressure 29.92 in    
Wind  
Wind Speed 8 mph (NE)    
Max Wind Speed 15 mph    
Max Gust Speed 17 mph    
Visibility 6 miles    
Events Fog , Rain    
Averages and records for this station are not official NWS values.
T = Trace of Precipitation, MM = Missing Value Source: NWS Daily Summary

Daily Weather History Graph

Daily Weather History Graph

Search for Another Location

Airport:

Trip Planner

Search our weather history database for the weather conditions in past years. The results will help you decide how hot, cold, wet, or windy it might be!

Date:

Astronomy

Mar. 22, 2012 Rise Set
Actual Time 7:38 AM CDT 7:55 PM CDT
Civil Twilight 7:10 AM CDT 8:23 PM CDT
Nautical Twilight 6:37 AM CDT 8:56 PM CDT
Astronomical Twilight 6:03 AM CDT 9:30 PM CDT
Moon 7:17 AM CDT (3/22) 8:23 PM CDT (3/22)
Length of Visible Light 13h 12m
Length of Day
12h 16m
New Moon, 0% of the Moon is Illuminated
Mar 22
New Moon
Mar 30
First Quarter
Apr 6
Full
Apr 13
Last Quarter
Apr 21
New

Hourly Weather History & Observations

Time (CDT) Temp. Windchill Dew Point Humidity Pressure Visibility Wind Dir Wind Speed Gust Speed Precip Events Conditions
12:15 AM 51.8 °F - 41.7 °F 68% 29.98 in 10.0 mi NNE 5.8 mph - N/A   Overcast
12:35 AM 52.5 °F - 43.2 °F 70% 29.98 in 10.0 mi NNE 6.9 mph - N/A   Overcast
1:15 AM 51.8 °F - 42.8 °F 71% 29.97 in 10.0 mi NNE 5.8 mph - N/A   Overcast
1:35 AM 51.1 °F - 42.8 °F 73% 29.97 in 10.0 mi North 4.6 mph - N/A   Overcast
1:55 AM 52.7 °F - 45.0 °F 75% 29.96 in 10.0 mi NE 6.9 mph - N/A   Overcast
2:15 AM 52.3 °F - 46.0 °F 79% 29.96 in 7.0 mi North 5.8 mph - N/A   Overcast
2:35 AM 52.7 °F - 47.3 °F 82% 29.95 in 10.0 mi NNE 8.1 mph - N/A   Overcast
2:55 AM 52.3 °F - 47.7 °F 84% 29.95 in 10.0 mi NNE 6.9 mph - N/A   Overcast
3:15 AM 52.0 °F - 46.8 °F 82% 29.95 in 7.0 mi North 10.4 mph - N/A   Overcast
3:35 AM 51.3 °F - 47.5 °F 87% 29.94 in 5.0 mi North 10.4 mph - N/A   Overcast
3:55 AM 50.5 °F - 49.6 °F 97% 29.94 in 4.0 mi North 8.1 mph - N/A   Overcast
4:15 AM 50.9 °F - 50.2 °F 97% 29.94 in 4.0 mi NNE 8.1 mph - N/A   Overcast
4:35 AM 50.9 °F - 50.7 °F 99% 29.94 in 2.5 mi North 8.1 mph - N/A   Overcast
4:55 AM 51.3 °F - 51.3 °F 100% 29.92 in 1.0 mi NNE 9.2 mph - N/A   Overcast
5:15 AM 51.8 °F - 51.8 °F 100% 29.93 in 0.5 mi NNE 9.2 mph - N/A Rain Rain
5:35 AM 52.2 °F - 52.2 °F 100% 29.93 in 0.8 mi NNE 9.2 mph - N/A   Drizzle
5:55 AM 52.3 °F - 52.3 °F 100% 29.94 in 1.8 mi NNE 8.1 mph - N/A   Drizzle
6:15 AM 52.7 °F - 52.7 °F 100% 29.94 in 4.0 mi NNE 10.4 mph - N/A   Overcast
6:35 AM 52.7 °F - 52.7 °F 100% 29.94 in 2.0 mi NNE 9.2 mph - N/A   Overcast
7:15 AM 53.1 °F - 53.1 °F 100% 29.92 in 1.0 mi NNE 10.4 mph - N/A Rain Rain
7:35 AM 53.2 °F - 53.2 °F 100% 29.92 in 1.0 mi NNE 12.7 mph - N/A   Light Drizzle
7:55 AM 53.6 °F - 53.6 °F 100% 29.92 in 0.8 mi NNE 11.5 mph - N/A   Overcast
8:15 AM 53.4 °F - 53.4 °F 100% 29.92 in 0.5 mi NNE 11.5 mph - N/A Fog Fog
8:35 AM 53.6 °F - 53.6 °F 100% 29.93 in 0.2 mi NE 10.4 mph - N/A Fog Fog
8:55 AM 53.6 °F - 53.6 °F 100% 29.94 in 0.2 mi NE 10.4 mph - N/A Rain Rain
9:15 AM 53.8 °F - 53.8 °F 100% 29.94 in 1.2 mi NE 12.7 mph - 0.02 in   Drizzle
9:35 AM 53.8 °F - 53.8 °F 100% 29.94 in 3.0 mi NE 11.5 mph - 0.03 in Rain Light Rain
9:55 AM 54.1 °F - 54.1 °F 100% 29.92 in 3.0 mi NE 12.7 mph - 0.04 in Rain Light Rain
10:15 AM 54.5 °F - 54.5 °F 100% 29.91 in 1.2 mi NNE 15.0 mph - N/A   Light Drizzle
10:35 AM 55.4 °F - 55.4 °F 100% 29.91 in 0.2 mi NNE 15.0 mph - N/A Fog Fog
10:55 AM 54.9 °F - 54.9 °F 100% 29.91 in 0.5 mi NE 12.7 mph - N/A Fog Fog
11:15 AM 54.9 °F - 54.9 °F 100% 29.91 in 0.5 mi NE 12.7 mph - N/A Fog Fog
11:35 AM 55.0 °F - 55.0 °F 100% 29.90 in 0.2 mi NNE 12.7 mph 17.3 mph N/A Fog Fog
11:55 AM 55.0 °F - 55.0 °F 100% 29.90 in 0.2 mi NE 13.8 mph - N/A   Light Drizzle
12:15 PM 55.0 °F - 55.0 °F 100% 29.90 in 0.2 mi NE 12.7 mph - N/A Rain Light Rain
12:35 PM 55.4 °F - 55.4 °F 100% 29.91 in 1.5 mi NE 12.7 mph - 0.06 in Rain Rain
12:55 PM 55.8 °F - 55.8 °F 100% 29.90 in 3.0 mi NE 13.8 mph - 0.09 in   Heavy Drizzle
1:15 PM 55.9 °F - 55.9 °F 100% 29.90 in 3.0 mi NE 12.7 mph - N/A   Drizzle
1:35 PM 56.3 °F - 56.3 °F 100% 29.90 in 3.0 mi ENE 11.5 mph - 0.01 in   Drizzle
1:55 PM 53.2 °F - 53.2 °F 100% 29.90 in 4.0 mi South 9.2 mph - 0.03 in Rain Rain
2:15 PM 53.8 °F - 53.8 °F 100% 29.89 in 5.0 mi South 8.1 mph - N/A   Light Drizzle
2:35 PM 54.7 °F - 54.7 °F 100% 29.88 in 10.0 mi South 9.2 mph - N/A   Overcast
2:55 PM 54.9 °F - 54.0 °F 97% 29.89 in 10.0 mi South 5.8 mph - N/A   Overcast
3:15 PM 54.5 °F - 53.8 °F 97% 29.88 in 7.0 mi SSW 5.8 mph - N/A Rain Light Rain
3:35 PM 54.3 °F - 53.6 °F 97% 29.88 in 10.0 mi SSW 6.9 mph - 0.01 in Rain Light Rain
3:55 PM 54.3 °F - 53.4 °F 97% 29.89 in 10.0 mi South 6.9 mph - 0.01 in   Overcast
4:15 PM 54.0 °F - 53.6 °F 99% 29.89 in 10.0 mi South 6.9 mph - N/A   Overcast
4:35 PM 54.5 °F - 53.4 °F 96% 29.89 in 10.0 mi South 5.8 mph - N/A   Overcast
4:55 PM 54.0 °F - 52.7 °F 95% 29.89 in 10.0 mi South 6.9 mph - N/A   Overcast
5:15 PM 53.6 °F - 52.7 °F 97% 29.90 in 10.0 mi South 6.9 mph - N/A   Overcast
5:35 PM 54.0 °F - 52.0 °F 93% 29.89 in 10.0 mi South 4.6 mph - N/A   Overcast
5:55 PM 54.7 °F - 51.3 °F 88% 29.89 in 10.0 mi South 3.5 mph - N/A   Overcast
6:15 PM 54.9 °F - 50.4 °F 85% 29.89 in 10.0 mi South 3.5 mph - N/A   Mostly Cloudy
6:35 PM 55.4 °F - 51.1 °F 85% 29.89 in 10.0 mi Calm Calm - N/A   Scattered Clouds
6:55 PM 56.3 °F - 49.8 °F 79% 29.89 in 10.0 mi South 4.6 mph - N/A   Scattered Clouds
7:15 PM 55.4 °F - 49.5 °F 80% 29.89 in 10.0 mi Calm Calm - N/A   Scattered Clouds
7:35 PM 54.5 °F - 49.1 °F 82% 29.89 in 10.0 mi Calm Calm - N/A   Clear
7:55 PM 53.1 °F - 49.5 °F 88% 29.90 in 10.0 mi Calm Calm - N/A   Clear
8:15 PM 53.2 °F - 48.9 °F 85% 29.90 in 10.0 mi Calm Calm - N/A   Clear
8:35 PM 52.5 °F - 49.6 °F 90% 29.90 in 10.0 mi Calm Calm - N/A   Clear
8:55 PM 51.8 °F - 50.0 °F 94% 29.91 in 10.0 mi Calm Calm - N/A   Clear
9:15 PM 51.1 °F - 49.1 °F 93% 29.91 in 10.0 mi NW 3.5 mph - N/A   Clear
9:35 PM 49.5 °F - 48.7 °F 97% 29.92 in 10.0 mi Calm Calm - N/A   Clear
9:55 PM 49.3 °F - 49.1 °F 99% 29.92 in 10.0 mi Calm Calm - N/A   Clear
10:15 PM 48.9 °F - 48.6 °F 99% 29.92 in 10.0 mi Calm Calm - N/A   Clear
10:35 PM 47.5 °F - 47.3 °F 99% 29.92 in 1.5 mi East 3.5 mph - N/A   Mist
10:55 PM 46.6 °F - 46.6 °F 100% 29.92 in 2.0 mi SE 3.5 mph - N/A   Clear
11:15 PM 45.5 °F - 45.5 °F 100% 29.92 in 1.0 mi Calm Calm - N/A   Mist
11:35 PM 46.4 °F 45.2 °F 46.4 °F 100% 29.92 in 1.0 mi South 3.5 mph - N/A   Mist
11:55 PM 46.2 °F 45.0 °F 46.2 °F 100% 29.93 in 5.0 mi South 3.5 mph - N/A   Clear